Home   Weather   Bastia   Past weeks

Flag for France Past Weather in Bastia, Corsica, France — Yesterday and Last 2 Weeks

Now
59 °F

Scattered clouds.


Feels Like: 57 °F
Forecast: 51 / 61 °F
Wind: 9 mph from Southeast

Location: Bastia Airport

Current Time: Feb 23, 2017 at 3:13:02 pm

Latest Report: Feb 23, 2017 at 2:30 pm


Visibility: N/A

Pressure: 30.04 "Hg

Humidity: 77%

Dew Point: 52 °F

Location of BastiaLocation

Past Weather in Bastia — Graph

°F

Bastia Temperature Yesterday

Maximum temperature yesterday: 61 °F (at 12:00 pm)
Minimum temperature yesterday: 45 °F (at 12:00 am)
Average temperature yesterday: 52 °F

High & Low Weather Summary for the Past Weeks

 TemperatureHumidityPressure
High61 °F (Feb 12, 12:30 pm)100% (Feb 15, 1:00 am)30.57 "Hg (Feb 15, 1:00 am)
Low37 °F (Feb 19, 6:30 am)39% (Feb 19, 12:00 pm)29.83 "Hg (Feb 8, 2:30 pm)
Average51 °F80%30.21 "Hg
* Reported Feb 8 1:00 pm — Feb 23 1:30 pm, Bastia, Weather by CustomWeather, © 2017

Note: Actual official high and low records may vary slightly from our data, if they occured in-between our weather recording intervals... More about our weather records

Advertising

Bastia Weather History for the Previous 24 Hours

Scroll right to see more
 ConditionsComfort  
Time TempWeatherWind HumidityBarometerVisibility
1:30 pm
Thu, Feb 23
59 °FScattered clouds.9 mph77%30.04 "HgN/A
1:00 pm59 °FScattered clouds.9 mph68%30.07 "HgN/A
12:30 pm61 °FScattered clouds.8 mph68%30.09 "HgN/A
11:54 am61 °FScattered clouds.7 mph68%30.09 "HgN/A
11:30 am59 °FScattered clouds.6 mph68%30.09 "HgN/A
11:00 am59 °FScattered clouds.7 mph68%30.09 "HgN/A
10:30 am59 °FScattered clouds.2 mph63%30.09 "HgN/A
10:00 am57 °FPassing clouds.1 mph72%30.09 "HgN/A
9:30 am55 °FPassing clouds.2 mph72%30.09 "HgN/A
9:00 am52 °FPassing clouds.3 mph77%30.09 "HgN/A
8:30 am50 °FPassing clouds.3 mph88%30.09 "HgN/A
8:00 am46 °FPassing clouds.3 mph87%30.09 "HgN/A
7:30 am43 °FPassing clouds.5 mph93%30.07 "HgN/A
7:00 am45 °FPassing clouds.No wind87%30.07 "HgN/A
6:30 am43 °FPassing clouds.3 mph93%30.07 "HgN/A
6:00 am45 °FPassing clouds.3 mph93%30.07 "HgN/A
5:30 am45 °FPassing clouds.2 mph87%30.07 "HgN/A
5:00 am45 °FPassing clouds.3 mph93%30.07 "HgN/A
4:30 am45 °FPassing clouds.3 mph93%30.07 "HgN/A
4:00 am46 °FPassing clouds.3 mph93%30.07 "HgN/A
3:30 am46 °FPassing clouds.3 mph93%30.07 "HgN/A
3:00 am46 °FPassing clouds.3 mph87%30.09 "HgN/A
2:30 am46 °FPassing clouds.3 mph93%30.09 "HgN/A
2:00 am48 °FPassing clouds.2 mph87%30.09 "HgN/A
1:30 am48 °FOvercast.2 mph94%30.09 "HgN/A
1:00 am48 °FOvercast.3 mph87%30.09 "HgN/A
12:30 am48 °FPassing clouds.2 mph94%30.09 "HgN/A
12:00 am50 °FPassing clouds.1 mph88%30.09 "HgN/A
11:30 pm
Wed, Feb 22
48 °FPassing clouds.No wind94%30.09 "HgN/A
11:00 pm50 °FPassing clouds.3 mph88%30.09 "HgN/A
10:30 pm52 °FPassing clouds.2 mph88%30.09 "HgN/A
10:00 pm52 °FPassing clouds.1 mph88%30.09 "HgN/A
9:30 pm52 °FPassing clouds.2 mph88%30.09 "HgN/A
9:00 pm54 °FPassing clouds.1 mph82%30.09 "HgN/A
8:30 pm54 °FPassing clouds.1 mph88%30.09 "HgN/A
8:00 pm54 °FPassing clouds.2 mph82%30.09 "HgN/A
7:30 pm55 °FPassing clouds.No wind77%30.09 "HgN/A
7:00 pm55 °FPassing clouds.No wind77%30.09 "HgN/A
6:30 pm55 °FPassing clouds.No wind77%30.09 "HgN/A
6:00 pm55 °FPartly sunny.No wind77%30.09 "HgN/A
5:30 pm55 °FPartly sunny.1 mph77%30.07 "HgN/A
5:00 pm57 °FPartly sunny.3 mph72%30.07 "HgN/A
4:30 pm57 °FPartly sunny.3 mph72%30.07 "HgN/A
3:30 pm57 °FPartly sunny.5 mph72%30.09 "HgN/A
3:00 pm57 °FPartly sunny.6 mph72%30.09 "HgN/A
Weather by CustomWeather, © 2017

See weather overviewHow to use our weather pages